Regional Weather Roundup
Issued by NWS Mt. Holly, NJ

Home | Current Version | Previous Version | Text Only | Print | Product List | Glossary On
Versions: 1 2 3 4 5 6 7 8 9 10 11 12 13 14 15 16 17 18 19 20 21 22 23 24 25 26 27 28
000
ASUS41 KPHI 110412
RWRPHI

REGIONAL WEATHER ROUNDUP
NATIONAL WEATHER SERVICE MOUNT HOLLY NJ
1100 PM EST SUN DEC 10 2017

NOTE:  "FAIR" INDICATES FEW OR NO CLOUDS BELOW 12,000 FEET WITH NO
SIGNIFICANT WEATHER AND/OR OBSTRUCTIONS TO VISIBILITY.

 * = STATION DOES NOT REPORT PRECIPITATION (E.G. RAIN, SNOW, ETC.)
        OR FOG.

NJZ015>026-110500-
SOUTHERN NEW JERSEY

CITY           SKY/WX    TMP DP  RH WIND       PRES   REMARKS
POMONA         CLOUDY    35  28  75 SW7       30.06F WCI  29
WILDWOOD*      CLOUDY    37  30  75 SW12      30.08F WCI  29
MILLVILLE      CLOUDY    35  30  82 SW5       30.07S WCI  31
WRIGHTSTOWN    CLOUDY    32  24  73 S7        30.02S WCI  26
MOUNT HOLLY    CLOUDY    34  25  69 SW5       30.05S WCI  30
TRENTON        CLOUDY    35  21  56 SW6       30.03R WCI  30

$$
NJZ001>014-110500-
NORTHERN NEW JERSEY

CITY           SKY/WX    TMP DP  RH WIND       PRES   REMARKS
SUSSEX         CLOUDY    32  20  61 SW5       29.97S WCI  27
ANDOVER*         N/A     31  20  63 S3        29.98S
MORRISTOWN     CLOUDY    32  23  69 SW3       30.01S
NEWARK         CLOUDY    35  22  58 SW9       30.02S WCI  28
TETERBORO      CLOUDY    35  23  61 SW9       30.01S WCI  28
CALDWELL       CLOUDY    33  21  61 VRB5      30.01S WCI  29
SOMERVILLE     CLOUDY    32  23  69 CALM      30.01R
ALLAIRE*       CLOUDY    33  23  66 SW7       30.05S WCI  27
TOMS RIVER*    CLOUDY    31  26  82 SW7       30.06S WCI  24

$$
PAZ043-044-047-054-055-060>062-066>071-110500-
EASTERN PENNSYLVANIA

CITY           SKY/WX    TMP DP  RH WIND       PRES   REMARKS
PHILADELPHIA   CLOUDY    36  25  64 S9        30.05S WCI  29
NORTH PHILA    CLOUDY    37  23  56 SW7       30.05S WCI  32
BLUE BELL*     CLOUDY    32  23  69 CALM      30.05S
DOYLESTOWN     CLOUDY    33  20  58 SW5       30.01S WCI  29
QUAKERTOWN*    CLOUDY    32  21  64 SW3       30.01S
PERKASIE*      CLOUDY    32  21  64 SW3       30.02R
POTTSTOWN      CLOUDY    32  20  61 S3        30.04R
LANCASTER      FLURRIES  34  22  61 SW6       30.02S WCI  29
COATESVILLE    CLOUDY    32  21  64 SW3       30.03S
READING        CLOUDY    34  24  67 SW8       30.01R WCI  27
ALLENTOWN      CLOUDY    33  21  61 W5        30.00S WCI  29
MOUNT POCONO   CLOUDY    25  17  72 W9        29.89S WCI  15
HAZLETON       MOCLDY    30  18  59 SW3       29.95S
LEHIGHTON      MOCLDY    30  23  74 CALM      30.00S
WILKES BARRE   CLOUDY    31  19  61 SW12      29.94S WCI  22

$$
DEZALL-MDZ008-012-015-019-020-110500-
DELAWARE AND EASTERN MARYLAND

CITY           SKY/WX    TMP DP  RH WIND       PRES   REMARKS
WILMINGTON     CLOUDY    34  25  69 S6        30.05F WCI  29
DOVER          CLOUDY    33  32  99 S7        30.07S WCI  26
GEORGETOWN     CLOUDY    33  27  78 S7        30.09S WCI  27
EASTON         CLOUDY    36  30  77 SW5       30.11S WCI  32
ABERDEEN       CLOUDY   N/A N/A N/A CALM      30.06S
PATUXENT       CLOUDY    36  28  73 SW9       30.08F WCI  29
OCEAN CITY     CLOUDY    35  30  82 W6        30.11S WCI  30
WALLOPS ISLAND CLOUDY    33  30  88 SW7       30.11F WCI  27
CAMBRIDGE      CLOUDY    32  28  86 S5        30.09S WCI  27
SALISBURY      CLOUDY    32  29  88 SW5       30.09F WCI  27

$$
PAZ001-021-NYZ056-072-MDZ011-DCZ001-110500-
OTHER NEARBY LOCATIONS

CITY           SKY/WX    TMP DP  RH WIND       PRES   REMARKS
HARRISBURG     CLOUDY    36  20  52 W6        30.01S WCI  31
STATE COLLEGE  CLOUDY    30  18  60 SW8       29.95S WCI  23
WILLIAMSPORT   CLOUDY    34  19  54 W6        29.97S WCI  29
BINGHAMTON     CLOUDY    26  16  65 W12       29.86R WCI  16
NEW YORK CITY  CLOUDY    36  21  54 VRB6G16   30.03S WCI  31
BALTIMORE      CLOUDY    34  27  75 CALM      30.05R
WASHINGTON DC  CLOUDY    38  28  67 S8        30.06S WCI  32

$$




USA.gov is the U.S. government's official web portal to all federal, state and local government web resources and services.